Location: Azul
(36.7830°S, 59.8500°W)
Time: 19:56:04
(UTC-03:00)

Tiangong - Pass Details

Date: 10 December 2023
Orbit: 375 x 385 km, 41.5° (Epoch: 27 February)

Event Time Altitude Azimuth Distance (km) Brightness Sun altitude
Rises 22:23:15 0° 281° (WNW) 2,262 2.1 -20.7°
Reaches altitude 10° 22:25:20 10° 277° (W) 1,418 1.1 -20.9°
Maximum altitude 22:28:29 57° 197° (SSW) 469 -1.5 -21.3°
Enters shadow 22:28:36 57° 185° (S) 472 -1.5 -21.3°
